"Pseudo-MPEC" for CAXA292

Created 2024 Oct 4 21:22:05 UT using Find_Orb

Click here for an explanation of pseudo-MPECs

 
 Astrometry: 
     CAXA292*1C2024 09 27.24348523 03 47.758+11 41 21.95   ~9R6b 19.83GVNEOCPG96
     CAXA292 1C2024 09 27.24920723 03 35.114+11 40 58.98   ~9R6bx20.24GVNEOCPG96
     CAXA292 1C2024 09 27.25492923 03 21.928+11 40 35.47   ~9R6b 20.80GVNEOCPG96
     CAXA292 1C2024 09 27.26063523 03 09.029+11 40 12.40   ~9R6b 20.59GVNEOCPG96
     CAXA292  C2024 09 27.29618823 02 01.624+11 38 36.67   ~9UNq 19.77GVNEOCPF52
     CAXA292  C2024 09 27.30678223 01 36.857+11 37 53.56   ~9UNq 19.82GVNEOCPF52
     CAXA292 KC2024 09 27.33509223 00 15.815+11 34 50.23   ~9R8M 20.06GVNEOCPI52
     CAXA292 KC2024 09 27.33585723 00 13.972+11 34 46.88   ~9R8M 19.64GVNEOCPI52
     CAXA292 KC2024 09 27.33661223 00 12.154+11 34 43.46   ~9R8M 20.22GVNEOCPI52
     CAXA292 KC2024 09 27.33736523 00 10.364+11 34 39.94   ~9R8M 20.01GVNEOCPI52

Station data:
(F52) Pan-STARRS 2, Haleakala  (N20.707382 W156.255910)  US/Hawaii.
   Observers J. Bulger, T. Dukes, T. Lowe, A. Schultz, M. Willman. Measurers
   K. Chambers, S. Chastel, T. de Boer, L. Denneau, J. Fairlamb, H.
   Flewelling, M. Huber, C.-C. Lin, E. Magnier, Y. Ramanjooloo, R. Wainscoat,
   R. Weryk. 1.8-m Ritchey-Chrétien + CCD.
(G96) Mt. Lemmon Survey  (N32.442729 W110.788720)  US/Arizona.  Observer E.
   J. Christensen. 1.5-m reflector + 10K CCD.
(I52) Steward Observatory, Mt. Lemmon Station  (N32.442570 W110.788920)
   US/Arizona.  Observers T. A. Pruyne, B. M. Africano, E. J. Christensen, G.
   A. Farneth, D. C. Fuls, A. R. Gibbs, A. D. Grauer, H. Gröller, J. A.
   Johnson, R. A. Kowalski, S. M. Larson, G. J. Leonard, D. Rankin, R. L.
   Seaman, F. C. Shelly, K. W. Wierzchoś. 1.0-m prime focus + CCD.

Orbital elements:  CAXA292
   Perihelion 2024 Nov 17.97295 +/- 2.03 TT = 23:21:03 (JD 2460632.47295)
Epoch 2024 Sep 27.0 TT = JDT 2460580.5   Earth MOID: 0.0039   Ve: 0.0079
M 334.45219911 +/- 5.7              (J2000 ecliptic)             AutoNEOCP
n   0.49155955 +/- 0.0877           Peri.  281.25841 +/- 1.9
a   1.59007871 +/- 0.167            Node   187.78210 +/- 0.38
e   0.6838931 +/- 0.0376            Incl.    6.92033 +/- 0.6
P   2.005/732.349d         H 26.96  G  0.15   U 11.1
q 0.50263470 +/- 0.00154    Q 2.67752271 +/- 0.336
9 of 10 observations 2024 Sept. 27 (2.3 hr); mean residual 0".43
Residuals in arcseconds: 
240927 G96  .70+  .61+    240927 F52  .56+  .08-    240927 I52  .29-  .50+    
240927 G96( 3.5+  .53+)   240927 F52  .28-  .24-    240927 I52  .18-  .44+    
240927 G96  .78-  .10+    240927 I52  .23+  .32+    
240927 G96  .59-  .26+    240927 I52  .04-  .47+    

Ephemerides (geocentric):
Date (UTC) HH   RA             Dec           delta  r     elong  mag " sig PA
---- --------  ------------   ------------  ------ ------ -----  --- --------
2024 10 04 21  13 12 38.598   -13 44 10.00  .06670 .93487  11.6 35?? 8888  90
2024 10 04 22  13 12 20.396   -13 44 07.73  .06721 .93434  11.5 35?? 8850  90
2024 10 04 23  13 12 02.462   -13 44 05.35  .06772 .93382  11.4 35?? 8813  90
2024 10 05 00  13 11 44.793   -13 44 02.88  .06822 .93329  11.4 36?? 8776  90
2024 10 05 01  13 11 27.381   -13 44 00.31  .06873 .93276  11.3 36?? 8740  90
2024 10 05 02  13 11 10.221   -13 43 57.65  .06924 .93223  11.2 36?? 8705  90
2024 10 05 03  13 10 53.308   -13 43 54.90  .06975 .93171  11.1 36?? 8670  90
2024 10 05 04  13 10 36.636   -13 43 52.06  .07025 .93118  11.0 36?? 8635  90
2024 10 05 05  13 10 20.201   -13 43 49.14  .07076 .93065  11.0 36?? 8602  90
2024 10 05 06  13 10 03.997   -13 43 46.13  .07127 .93012  10.9 36?? 8568  90
2024 10 05 07  13 09 48.020   -13 43 43.06  .07178 .92959  10.8 36?? 8535  90
2024 10 05 08  13 09 32.265   -13 43 39.90  .07229 .92907  10.8 36?? 8503  90
2024 10 05 09  13 09 16.727   -13 43 36.67  .07279 .92854  10.7 36?? 8471  90
2024 10 05 10  13 09 01.402   -13 43 33.38  .07330 .92801  10.6 36?? 8440  90
2024 10 05 11  13 08 46.286   -13 43 30.01  .07381 .92748  10.5 36?? 8409  90
2024 10 05 12  13 08 31.374   -13 43 26.58  .07432 .92695  10.5 36?? 8378  90
2024 10 05 13  13 08 16.662   -13 43 23.09  .07483 .92642  10.4 36?? 8348  90
2024 10 05 14  13 08 02.147   -13 43 19.53  .07534 .92590  10.3 37?? 8318  90
2024 10 05 15  13 07 47.825   -13 43 15.91  .07585 .92537  10.3 37?? 8289  90
2024 10 05 16  13 07 33.691   -13 43 12.24  .07636 .92484  10.2 37?? 8260  90
2024 10 05 17  13 07 19.742   -13 43 08.51  .07687 .92431  10.2 37?? 8232  91
2024 10 05 18  13 07 05.975   -13 43 04.72  .07738 .92378  10.1 37?? 8204  91
2024 10 05 19  13 06 52.385   -13 43 00.88  .07789 .92325  10.0 37?? 8176  91
2024 10 05 20  13 06 38.970   -13 42 56.99  .07840 .92272  10.0 37?? 8149  91
2024 10 05 21  13 06 25.727   -13 42 53.05  .07891 .92220   9.9 37?? 8122  91
2024 10 05 22  13 06 12.651   -13 42 49.07  .07942 .92167   9.8 37?? 8095  91
2024 10 05 23  13 05 59.741   -13 42 45.03  .07993 .92114   9.8 37?? 8069  91
2024 10 06 00  13 05 46.992   -13 42 40.95  .08044 .92061   9.7 37?? 8043  91
2024 10 06 01  13 05 34.402   -13 42 36.83  .08095 .92008   9.7 37?? 8017  91
2024 10 06 02  13 05 21.968   -13 42 32.66  .08146 .91955   9.6 37?? 7992  91
2024 10 06 03  13 05 09.687   -13 42 28.45  .08197 .91902   9.6 37?? 7967  91
2024 10 06 04  13 04 57.556   -13 42 24.20  .08248 .91849   9.5 37?? 7943  91
2024 10 06 05  13 04 45.573   -13 42 19.91  .08300 .91796   9.5 38?? 7918  91
2024 10 06 06  13 04 33.735   -13 42 15.58  .08351 .91743   9.4 38?? 7894  91
2024 10 06 07  13 04 22.039   -13 42 11.22  .08402 .91691   9.4 38?? 7871  91
2024 10 06 08  13 04 10.482   -13 42 06.81  .08453 .91638   9.3 38?? 7847  91
2024 10 06 09  13 03 59.064   -13 42 02.38  .08504 .91585   9.3 38?? 7824  91
2024 10 06 10  13 03 47.780   -13 41 57.90  .08556 .91532   9.2 38?? 7802  91
2024 10 06 11  13 03 36.628   -13 41 53.40  .08607 .91479   9.2 38?? 7779  91
2024 10 06 12  13 03 25.608   -13 41 48.86  .08658 .91426   9.1 38?? 7757  91
2024 10 06 13  13 03 14.715   -13 41 44.29  .08709 .91373   9.1 38?? 7735  91
2024 10 06 14  13 03 03.948   -13 41 39.68  .08761 .91320   9.0 38?? 7713  91
2024 10 06 15  13 02 53.304   -13 41 35.05  .08812 .91267   9.0 38?? 7692  91
2024 10 06 16  13 02 42.783   -13 41 30.38  .08863 .91214   8.9 38?? 7671  91
2024 10 06 17  13 02 32.380   -13 41 25.69  .08914 .91161   8.9 38?? 7650  91
2024 10 06 18  13 02 22.096   -13 41 20.97  .08966 .91108   8.8 38?? 7629  91
2024 10 06 19  13 02 11.927   -13 41 16.22  .09017 .91055   8.8 38?? 7608  91
2024 10 06 20  13 02 01.872   -13 41 11.44  .09069 .91002   8.8 38?? 7588  91